Wind_Speed
7 7 7 8 8 8 8 9 10 11 12 12 14 14 15 16 16 17 17 18 18 19 20 20 20 21 21 21 21 21 21 22 22 23 24 24 25 25 26 27 28 29 29
8 8 9 9 9 9 10 10 10 10 11 12 13 14 14 16 17 18 19 18 19 19 20 21 20 21 21 22 21 21 21 22 23 24 25 26 26 27 28 29 30 31 31
9 9 9 10 10 10 10 10 10 10 11 13 13 13 14 16 17 18 19 19 19 19 19 20 21 22 21 22 21 22 23 24 25 26 27 28 28 29 30 31 32 33 34
11 10 10 11 11 11 11 11 11 11 12 12 13 14 15 17 18 18 18 19 19 19 19 20 22 22 22 22 23 24 25 26 27 28 28 29 30 31 32 33 34 35 36
12 12 12 12 11 11 12 12 12 12 12 13 14 15 16 17 18 18 18 19 19 20 21 21 21 22 22 23 24 25 27 28 28 29 30 30 32 33 33 35 35 36 37
13 13 13 13 13 13 13 13 12 12 13 14 15 16 16 17 18 18 19 19 20 20 21 22 23 24 24 25 26 27 28 29 30 31 31 32 33 34 35 36 37 38 39
14 14 15 14 14 14 13 14 14 13 13 13 14 15 16 17 18 19 19 19 20 20 21 22 24 25 26 27 27 28 29 29 30 32 32 33 34 35 36 37 38 39 41
15 15 15 15 14 14 14 14 15 15 16 16 16 17 18 18 19 19 20 21 21 22 22 24 24 25 26 27 27 28 29 30 30 31 32 33 35 36 37 38 39 40 42
17 16 16 16 16 16 16 16 17 17 17 17 17 18 19 19 19 20 21 22 22 22 23 24 25 26 27 28 28 28 30 30 30 31 32 33 34 36 38 39 40 41 42
18 18 17 17 17 18 18 18 18 18 18 18 18 19 19 19 20 20 21 21 22 22 24 24 25 26 26 27 28 29 30 31 31 31 32 34 36 36 37 39 40 41 42
20 19 19 19 19 19 19 19 20 19 19 19 19 19 19 20 20 20 20 21 22 23 24 24 25 26 27 27 29 30 30 30 31 32 33 34 35 36 37 38 40 41 42
22 21 21 20 20 21 21 20 20 20 21 21 21 20 20 20 21 20 21 22 23 24 25 26 27 27 28 28 29 29 29 30 31 32 33 34 35 36 37 38 39 40 41
24 23 22 22 21 21 21 21 21 21 22 22 21 21 21 21 21 22 22 22 23 24 25 26 27 27 28 29 28 28 30 30 31 32 33 34 35 36 38 38 39 39 39
25 24 24 23 23 23 23 22 22 22 22 22 22 22 22 21 22 22 23 23 24 24 25 25 25 26 28 28 28 29 29 30 31 32 33 34 35 36 36 36 36 37 37
25 25 25 24 24 24 23 23 22 22 22 22 22 22 22 22 22 23 23 23 23 24 25 25 26 27 28 28 28 28 29 30 31 32 33 34 34 34 34 33 34 34 35
25 24 24 24 24 23 23 22 22 23 23 23 23 22 22 22 23 24 24 23 24 24 25 26 27 27 27 27 28 29 30 31 31 32 32 32 31 31 31 32 33 33 33
25 24 23 24 24 23 23 23 23 23 23 23 23 22 22 22 23 24 23 23 23 24 24 25 26 26 27 27 28 29 30 30 30 30 30 30 30 30 31 31 32 32 32
24 23 23 23 23 23 22 23 23 23 23 22 21 21 21 22 23 23 23 23 23 24 25 25 26 26 26 27 28 29 29 29 29 29 29 29 30 30 30 31 30 31 31
24 23 23 22 22 22 22 22 22 21 21 21 21 21 21 22 23 23 23 23 24 25 26 26 26 26 26 27 28 28 28 28 28 28 28 29 29 29 29 29 29 30 30
22 22 22 22 21 21 21 21 21 21 21 21 21 21 22 23 23 23 23 23 24 25 26 26 26 26 27 27 27 27 28 28 28 28 28 28 28 28 28 28 29 29 30
20 19 19 19 19 20 19 19 20 20 20 21 22 22 22 22 23 23 24 24 25 25 25 25 26 27 27 27 27 28 28 28 28 28 28 28 28 27 28 28 28 28 29
19 19 19 19 19 19 19 19 19 19 20 20 20 21 22 23 23 24 24 24 24 25 25 26 26 27 27 27 27 28 27 27 28 28 27 26 26 27 27 27 27 27 27
18 18 17 17 17 17 17 18 19 19 20 20 21 21 22 22 22 23 24 25 25 26 26 27 27 27 28 27 27 27 27 27 27 27 26 25 25 25 25 25 26 26 26
16 16 16 17 17 17 18 18 19 20 20 21 21 22 22 23 24 25 26 26 26 26 27 27 27 28 28 27 27 27 27 27 26 25 25 24 24 24 24 24 25 25 26
16 16 17 17 18 19 19 19 20 21 22 22 23 23 24 25 26 27 27 27 27 27 27 28 28 28 28 27 27 27 26 25 25 24 23 23 23 23 24 24 25 25 26
16 17 17 18 19 19 19 20 20 21 22 22 23 25 25 26 26 27 27 27 27 27 27 27 27 27 27 27 26 25 25 24 23 23 23 23 23 23 23 24 25 25 25
Wind_Direction
294 288 287 282 281 279 270 264 260 258 255 254 257 261 261 261 260 258 261 262 262 262 261 262 263 264 265 266 267 267 267 269 270 273 272 272 273 275 275 275 276 278 278
295 290 290 291 291 285 278 271 270 269 260 257 260 261 261 262 261 261 264 263 263 264 263 263 264 265 267 268 268 269 270 271 273 274 274 274 275 277 277 277 278 278 278
301 290 290 291 290 288 282 275 274 273 268 264 263 262 263 264 266 267 264 261 263 264 263 264 264 266 268 268 270 272 273 274 275 276 277 276 275 276 276 277 279 279 280
306 299 294 293 290 285 282 278 277 277 271 267 266 264 267 269 271 270 267 265 266 264 264 264 265 266 269 269 272 276 277 276 277 278 278 277 277 278 278 280 281 281 281
303 301 300 297 294 292 285 279 277 277 277 273 273 272 270 271 272 271 270 268 268 268 267 266 266 267 270 271 275 277 279 279 279 278 278 277 279 281 282 283 284 284 284
301 299 298 295 290 291 289 285 282 281 281 279 276 276 273 273 272 270 270 270 271 270 270 270 269 271 272 273 275 278 280 281 281 279 279 279 281 282 283 284 285 286 286
297 295 295 292 287 285 285 283 282 281 283 283 280 280 279 279 276 273 271 271 272 271 271 272 273 275 275 276 278 280 283 284 283 282 282 283 283 283 285 285 285 286 286
296 292 292 289 287 284 284 284 284 283 283 282 280 280 282 283 280 276 273 271 272 275 276 277 277 278 279 281 282 284 286 287 286 286 285 285 284 285 285 286 287 288 287
295 293 292 290 288 287 287 286 285 285 285 284 282 282 281 282 282 278 274 272 275 276 277 278 280 281 282 282 284 286 288 288 289 289 289 289 288 287 287 288 290 290 290
292 290 289 288 288 287 286 285 284 284 284 283 283 282 282 281 281 280 276 275 276 278 280 281 281 283 282 284 286 287 289 290 290 291 291 291 291 291 291 291 292 292 293
290 289 288 286 285 284 284 284 283 282 282 281 282 282 282 283 283 281 279 279 280 281 281 281 283 283 283 286 289 289 289 289 290 291 292 293 293 293 292 292 293 294 294
288 286 286 284 283 282 282 283 283 282 281 281 282 283 283 284 284 281 282 284 284 283 282 283 286 286 286 287 290 291 291 292 292 293 294 295 296 296 297 297 297 297 297
286 285 285 284 283 282 281 281 282 283 282 281 282 283 283 283 283 283 284 285 284 283 284 286 287 288 288 289 290 291 293 294 295 296 297 298 299 299 299 299 300 301 301
284 282 282 281 281 281 281 280 280 282 282 282 284 284 284 283 283 283 284 285 285 284 284 287 289 290 291 293 293 294 295 296 297 299 300 301 301 301 302 303 303 304 305
283 283 281 279 279 279 279 279 280 280 281 282 283 284 285 284 284 284 284 285 285 286 288 289 291 292 293 294 295 297 298 299 299 300 301 302 302 303 304 305 306 307 307
282 282 281 281 279 278 278 278 280 280 281 281 281 282 281 283 284 285 286 287 287 288 290 290 291 293 294 294 296 297 298 299 299 301 302 303 304 304 305 307 308 308 309
281 281 281 279 278 278 277 276 278 279 280 279 279 280 281 284 286 287 288 290 289 291 292 293 293 293 294 294 297 298 299 300 301 303 304 305 305 306 307 309 310 311 312
279 278 277 277 277 277 276 277 277 277 277 278 279 278 280 282 285 286 285 287 289 291 291 292 292 293 294 296 297 298 299 301 302 303 304 305 305 306 308 310 312 314 315
277 275 274 275 276 276 276 275 274 274 274 276 277 277 278 281 284 286 287 289 291 292 292 293 293 294 295 296 297 299 301 302 302 303 305 305 306 307 309 311 313 315 317
273 272 272 273 274 273 272 273 273 274 275 275 277 279 281 283 284 286 287 289 292 293 292 293 293 294 295 297 299 301 302 303 304 304 305 305 307 308 310 312 314 316 318
271 271 273 273 273 273 273 271 273 274 275 277 279 281 282 284 286 287 290 292 292 292 292 293 294 295 296 299 301 302 303 303 303 304 306 307 308 310 311 313 315 317 319
271 271 272 272 272 271 271 272 274 275 277 280 283 285 286 286 286 287 289 291 291 290 291 292 294 296 298 299 301 301 302 303 303 305 306 307 309 310 312 314 317 319 320
269 270 271 272 274 273 273 275 277 279 282 284 285 286 288 288 289 289 291 292 292 291 292 293 295 296 297 298 299 300 301 302 303 305 306 307 309 311 313 316 319 321 322
266 268 271 273 275 275 277 278 280 282 283 284 285 286 287 289 289 290 291 292 292 293 293 294 294 295 296 298 299 300 301 302 303 305 306 307 309 311 313 316 318 321 323
266 270 272 273 275 276 278 280 281 283 284 285 286 287 288 290 290 290 291 291 292 293 293 294 294 295 296 297 298 299 300 301 303 305 306 308 309 311 313 315 318 320 322
270 272 274 276 277 278 279 280 281 282 283 284 286 289 290 290 291 290 291 292 292 292 292 293 294 294 294 295 296 298 299 300 302 303 305 306 308 310 313 315 317 319 321
Height
5862 5861 5860 5860 5859 5859 5858 5858 5858 5858 5858 5859 5859 5860 5860 5860 5860 5860 5861 5861 5861 5862 5862 5862 5862 5862 5862 5862 5862 5862 5861 5861 5860 5860 5859 5858 5857 5856 5855 5853 5852 5850 5848
5860 5859 5858 5858 5857 5856 5856 5855 5855 5855 5855 5855 5856 5856 5856 5856 5856 5856 5856 5856 5856 5857 5857 5857 5857 5857 5857 5856 5856 5856 5855 5855 5854 5853 5852 5851 5850 5849 5848 5846 5844 5842 5840
5857 5856 5856 5855 5854 5853 5853 5852 5852 5852 5852 5852 5852 5852 5852 5852 5852 5851 5851 5851 5851 5851 5851 5851 5851 5851 5851 5850 5850 5850 5849 5848 5847 5846 5845 5844 5842 5841 5839 5838 5835 5833 5831
5854 5853 5853 5852 5851 5850 5850 5849 5849 5848 5848 5848 5848 5847 5847 5847 5847 5847 5846 5846 5846 5846 5846 5846 5845 5845 5845 5844 5844 5843 5842 5841 5840 5839 5837 5836 5834 5832 5831 5829 5826 5824 5822
5852 5851 5850 5849 5848 5847 5846 5846 5845 5845 5844 5844 5844 5843 5843 5843 5842 5842 5842 5841 5841 5841 5840 5840 5840 5839 5839 5838 5838 5837 5836 5834 5833 5831 5829 5828 5826 5824 5822 5820 5817 5815 5812
5849 5848 5847 5846 5844 5844 5843 5842 5841 5841 5840 5840 5840 5839 5839 5838 5838 5837 5837 5836 5836 5835 5835 5834 5834 5833 5833 5832 5831 5830 5828 5827 5825 5823 5821 5819 5817 5815 5812 5810 5808 5805 5802
5845 5844 5843 5842 5841 5840 5839 5839 5838 5837 5837 5836 5836 5835 5834 5834 5833 5832 5831 5831 5830 5830 5829 5829 5828 5827 5826 5825 5824 5822 5820 5819 5817 5815 5813 5811 5808 5806 5803 5800 5797 5794 5791
5841 5840 5839 5838 5837 5836 5835 5835 5834 5833 5832 5832 5831 5831 5830 5829 5827 5826 5826 5825 5824 5824 5823 5822 5821 5820 5819 5818 5816 5814 5813 5811 5808 5806 5804 5801 5799 5796 5793 5790 5787 5783 5779
5837 5836 5835 5834 5833 5832 5831 5830 5829 5829 5828 5827 5826 5826 5825 5823 5822 5821 5820 5819 5819 5818 5817 5816 5815 5814 5812 5810 5809 5807 5804 5802 5800 5797 5795 5792 5789 5786 5783 5779 5775 5772 5768
5832 5831 5830 5829 5828 5827 5826 5825 5824 5824 5823 5822 5821 5820 5819 5818 5816 5815 5814 5813 5813 5812 5811 5809 5808 5806 5805 5803 5801 5799 5797 5794 5791 5789 5786 5782 5779 5776 5772 5768 5764 5760 5756
5827 5826 5825 5824 5823 5822 5821 5820 5819 5818 5817 5816 5815 5815 5814 5812 5811 5809 5808 5807 5806 5805 5803 5802 5800 5799 5797 5795 5793 5790 5788 5785 5783 5780 5776 5773 5769 5766 5762 5758 5754 5749 5745
5821 5820 5819 5819 5818 5816 5815 5814 5813 5812 5811 5810 5809 5808 5807 5806 5805 5803 5802 5801 5799 5798 5796 5795 5793 5791 5789 5787 5784 5782 5779 5777 5774 5770 5767 5763 5759 5756 5751 5747 5742 5738 5733
5814 5813 5812 5812 5811 5810 5809 5808 5807 5806 5805 5804 5803 5802 5801 5800 5798 5797 5796 5794 5793 5791 5789 5787 5785 5783 5781 5779 5776 5774 5771 5768 5765 5761 5757 5754 5749 5745 5741 5736 5731 5727 5721
5808 5807 5806 5805 5804 5803 5802 5801 5800 5799 5798 5797 5796 5795 5794 5793 5791 5790 5788 5787 5786 5784 5782 5780 5778 5776 5774 5771 5768 5765 5762 5759 5756 5752 5748 5744 5740 5736 5731 5726 5722 5717 5712
5800 5799 5798 5797 5797 5796 5795 5795 5794 5793 5792 5791 5790 5788 5787 5786 5785 5783 5782 5780 5778 5777 5775 5773 5771 5768 5766 5763 5760 5757 5754 5750 5747 5743 5739 5735 5731 5727 5722 5718 5713 5708 5703
5793 5792 5791 5790 5790 5789 5788 5788 5787 5786 5785 5784 5783 5782 5780 5779 5778 5776 5775 5773 5771 5770 5768 5765 5763 5760 5758 5755 5752 5749 5746 5742 5738 5735 5730 5726 5722 5718 5714 5710 5705 5700 5695
5786 5785 5784 5783 5783 5782 5781 5781 5780 5779 5778 5777 5776 5775 5774 5772 5771 5769 5768 5766 5764 5762 5760 5758 5755 5753 5750 5747 5744 5741 5737 5734 5730 5726 5722 5719 5715 5711 5706 5702 5697 5692 5687
5779 5778 5777 5777 5776 5775 5775 5774 5773 5772 5771 5770 5769 5768 5767 5766 5764 5763 5761 5759 5757 5755 5752 5750 5748 5745 5742 5739 5736 5733 5729 5726 5722 5719 5715 5711 5707 5703 5699 5694 5690 5685 5680
5771 5771 5770 5770 5769 5768 5767 5767 5766 5765 5764 5763 5762 5761 5760 5759 5757 5755 5754 5752 5750 5747 5745 5742 5740 5737 5735 5732 5729 5725 5722 5718 5714 5711 5707 5703 5700 5696 5691 5687 5682 5678 5673
5764 5764 5763 5763 5762 5761 5761 5760 5759 5759 5758 5757 5756 5755 5753 5752 5750 5748 5746 5744 5742 5740 5738 5735 5732 5730 5727 5724 5721 5717 5714 5711 5707 5704 5700 5696 5692 5688 5684 5680 5676 5671 5666
5757 5757 5756 5756 5755 5754 5754 5753 5753 5752 5751 5750 5749 5748 5747 5745 5743 5741 5739 5737 5735 5733 5730 5728 5725 5722 5719 5716 5713 5710 5707 5703 5700 5696 5693 5689 5685 5681 5677 5673 5669 5664 5660
5751 5750 5750 5749 5749 5748 5747 5747 5746 5745 5744 5743 5742 5741 5739 5738 5736 5734 5732 5730 5728 5726 5723 5720 5718 5715 5712 5709 5706 5703 5699 5696 5693 5689 5686 5682 5678 5675 5671 5667 5663 5658 5654
5744 5744 5744 5743 5743 5742 5741 5741 5740 5739 5738 5737 5735 5734 5733 5731 5729 5727 5725 5723 5721 5718 5715 5713 5710 5707 5704 5701 5698 5695 5692 5689 5686 5682 5679 5675 5672 5668 5665 5661 5657 5653 5648
5739 5738 5738 5738 5737 5736 5735 5735 5734 5733 5731 5730 5729 5727 5726 5724 5722 5720 5718 5715 5713 5710 5708 5705 5702 5699 5696 5693 5691 5688 5685 5681 5678 5675 5672 5669 5666 5662 5659 5655 5651 5647 5643
5733 5733 5732 5732 5731 5730 5729 5728 5727 5726 5725 5723 5722 5720 5719 5717 5715 5712 5710 5708 5705 5702 5700 5697 5694 5692 5689 5686 5683 5680 5677 5675 5672 5669 5666 5663 5660 5657 5653 5650 5646 5642 5638
5727 5727 5726 5726 5725 5724 5723 5722 5721 5720 5718 5717 5715 5713 5711 5709 5707 5704 5702 5699 5697 5694 5691 5689 5686 5684 5681 5679 5676 5673 5671 5668 5665 5663 5660 5657 5654 5651 5648 5644 5640 5637 5632